Regional Weather Roundup
Issued by NWS

Current Version | Previous Version | Text Only | Print | Product List | Glossary On
Versions: 1 2 3 4 5 6 7 8 9 10 11 12 13 14 15 16 17 18 19 20 21 22 23 24 25 26 27 28 29 30 31 32 33 34 35 36 37 38 39 40 41 42 43 44 45 46 47 48 49 50
000
ASHW40 PHFO 291043
RWRHI

WEATHER ROUNDUP FOR HAWAII
NATIONAL WEATHER SERVICE HONOLULU HI
1200 AM HST TUE JUL 29 2014

THIS IS AN AUTOMATED REPORT THAT HAS NOT BEEN QUALITY CONTROLLED.

NOTE..."FAIR" INDICATES FEW OR NO CLOUDS BELOW 12,000 FEET WITH NO
SIGNIFICANT WEATHER AND/OR OBSTRUCTIONS TO VISIBILITY.

* - THESE SITES REPORT LIMITED FIELDS

HIZ001>004-291100-
KAUAI-NIIHAU-

CITY           SKY/WX    TMP DP  RH WIND       PRES   REMARKS
LIHUE APT      PTCLDY    79  70  73 NE10      30.07F
PORT ALLEN*      N/A     79 N/A N/A NE14G21     N/A
POIPU*           N/A     79 N/A N/A NE7G14      N/A
PRINCEVILLE*   NOT AVBL
KOKOLE POINT*  NOT AVBL
MOLOAA DAIRY*  NOT AVBL
WAIMEA HTS*      N/A     73  64  73 NW3         N/A
PUU OPAE*        N/A     66  63  88 CALM        N/A
PUU LUA*       NOT AVBL
MAKAHA RIDGE*  NOT AVBL
$$

HIZ005>011-291100-
OAHU-

CITY           SKY/WX    TMP DP  RH WIND       PRES   REMARKS
HONOLULU       PTCLDY    79  67  66 NE10      30.05S
KALAELOA       CLEAR     74  66  76 CALM      30.06F
KANEOHE MCB    MOCLDY    72  66  83 E8        30.06S
WHEELER FIELD  FAIR      72  66  79 VRB1      30.06F
BELLOWS*         N/A    N/A N/A N/A NE16        N/A
KAHUKU*          N/A    N/A N/A N/A E10G16      N/A
WHEELER*       NOT AVBL
WAIANAE HARBOR NOT AVBL
DILLINGHAM*      N/A     70  64  83 SE1         N/A
KAHUKU TRN*      N/A     75  70  83 E10G22      N/A
KAWAILOA*      NOT AVBL
KII*             N/A     79  72  78 CALM        N/A
MAKUA RANGE*     N/A     73  64  73 SE5G10      N/A
OAHU FOREST NW   N/A     66  66 100 NW18G30     N/A
SCHOFIELD BRK*   N/A     70  64  83 MISG        N/A
SCHOFIELD S*   NOT AVBL
WAIANAE VLY*     N/A     73  63  68 E7          N/A
KUAOKALA*        N/A     72  64  78 CALM        N/A
HONOULIUULI*   NOT AVBL
MOKUOLOE IS*     N/A    N/A N/A N/A MISG        N/A
PALEHUA*         N/A     79  66  65 CALM        N/A
WAIAWA PHB*    NOT AVBL
$$

HIZ012>013-291100-
MOLOKAI-

CITY           SKY/WX    TMP DP  RH WIND       PRES   REMARKS
MOLOKAI AIRPT  CLEAR     75  69  81 E12       30.06S
KALAUPAPA      NOT AVBL
MAKAPULAPAI*     N/A     77  68  73 E18G25      N/A
MOLOKAI 1*       N/A     66  57  72 S3G16       N/A
PUU ALII*        N/A     60  58  94 SE3G14      N/A
$$

HIZ016-291100-
KAHOOLAWE-

CITY           SKY/WX    TMP DP  RH WIND       PRES   REMARKS
KAHOOLAWE*       N/A     70 N/A N/A E16G23      N/A
HAKIOAWA*        N/A     72  66  81 MISG      30.16F
HONOKANAIA*      N/A     77  68  73 NE13G24   30.05F
KANELOA*         N/A     73  66  78 NE18G35   30.15R
KEALIALALO*      N/A    N/A N/A N/A E12G26    30.35S
LUA MAKIKA*    NOT AVBL
$$

HIZ014>015-291100-
LANAI-

CITY           SKY/WX    TMP DP  RH WIND       PRES   REMARKS
LANAI CITY     CLOUDY    73  69  87 NE7       30.10F
LANAI 1*         N/A     72  72 100 NE13G26     N/A
$$

HIZ017>028-291100-
MAUI-

CITY           SKY/WX    TMP DP  RH WIND       PRES   REMARKS
KAHULUI        CLEAR     76  67  73 E8        30.04S
KAPALUA-W MAUI NOT AVBL
HANA AIRPORT   PTCLDY    73  68  83 S3        30.09S
HANA*            N/A     77 N/A N/A E5G12       N/A
HALEAKALA SUMM   N/A     43  25  49 S5G20       N/A
MAALAEA BAY*   NOT AVBL
HALEAKALA*     NOT AVBL
KAUPO GAP*       N/A     61  54  77 NE1G7       N/A
KULA 1*          N/A     56  32  40 E7          N/A
$$

HIZ023>026-291100-
BIG ISLAND OF HAWAII COAST AND LOWER SLOPES-

CITY           SKY/WX    TMP DP  RH WIND       PRES   REMARKS
KAILUA KONA    MOCLDY    80  70  71 SE8       30.00F
HILO           MOCLDY    74  65  73 SW6       30.06F
HONOKAA*       NOT AVBL
KAWAIHAE MWT*    N/A     79 N/A N/A NE7         N/A
KAWAIHAE*        N/A     79 N/A N/A NE3         N/A
SOUTH POINT*   NOT AVBL
UPOLU AIRPORT*   N/A    N/A N/A N/A E17G24      N/A
KAMUELA*       SUNNY     63  61  94 NE14      30.14S
HAKALAU*         N/A     46  34  61 SW5         N/A
KALOKO-HONOKO*   N/A     79  70  73 E5        29.99
PALI 2*          N/A     64  59  82 N8G18       N/A
KEALAKOMO*       N/A     79  66  65 NE9G17      N/A
KAUPULEHU*       N/A     72  64  78 SE6         N/A
KAPAPALA*        N/A     62  60  92 CALM        N/A
LOWER KAHUKU*  NOT AVBL
PUHE CS*       NOT AVBL
PUHO CS*         N/A     77  70  78 E2          N/A
PTA KEAMUKU*     N/A     61  59  94 S8          N/A
WAIKOLOA*        N/A     72  61  68 E12G17      N/A
$$

HIZ027>028-291100-
BIG ISLAND OF HAWAII INTERIOR AND SUMMMITS-

CITY           SKY/WX    TMP DP  RH WIND       PRES   REMARKS
BRADSHAW FIELD CLOUDY    57  29  34 SE6       30.38F
MK VISITOR CEN NOT AVBL
MAUNA KEA*       N/A     36 -18   9 SE14        N/A  WCI  27
MAUNA LOA*       N/A    N/A N/A N/A MISG        N/A
MAUNA LOA 1*     N/A    N/A N/A N/A MISG        N/A
PTA KIPUKA*      N/A     52  48  87 SE3         N/A
PTA RANGE 17*    N/A     59  34  38 E5G10       N/A
PTA WEST*        N/A     55  54  94 S6          N/A
NENE CABIN*    NOT AVBL
AHUMOA*          N/A     53  42  67 E3          N/A
PTA PORTABLE*  NOT AVBL
PUU MALI*      NOT AVBL
$$

HIC003-291100-
NORTHWEST ISLANDS-

CITY           SKY/WX    TMP DP  RH WIND       PRES   REMARKS
MIDWAY ISLAND  PTCLDY    82  75  78 S14       30.05R
MIDWAY NOS*    NOT AVBL
FRENCH FRIGATE NOT AVBL
$$

PHZ110>124-180-291100-
BUOY REPORTS

STATION/POSITION TIME  TEMP    WIND        PRES    WAVE   SWELL
                       AIR SEA DIR/SP/G            HT/PER HT/DIR
                 (UTC) (F)     (DEG/KT/KT) (MB)    (FT/S) (FT/D)
BUOY 51001       NOT AVBL
BUOY 51101       NOT AVBL
BUOY 51100       0900   78 78   90/ 14/ 16 1019.2F
BUOY 51003       1000           70/ 14       N/A
BUOY 51004       0854   79 80   60/ 16/ 19 1016.0    8/ 9   7/100
BARBERS PT BUOY  NOT AVBL
WAIMEA BAY BUOY  1000      80                N/A     2/13
KAILUA BAY BUOY  1000      80                N/A     5/ 5   2/ 90
LANAI BUOY       1000      80                N/A     2/15   2/200
BARBERS PT 2     1000      81                N/A     3/17   2/200
PAUWELA MAUI     1000      79                N/A     6/ 8   2/100
HILO             NOT AVBL
KANEOHE BAY BUOY 1000      79                N/A     4/ 6
HANALEI KAUAI    NOT AVBL
KAHULUI HARBOR   1000   77 80   50/ 12/ 18 1016.9F
HONOLULU HARBOR  1000   79     130/  3/  6 1017.5F
KILO NALU        NOT AVBL
HILO HARBOR      1000   74     200/  6/  8 1017.5F
MOKUOLOE         1000      83              1018.0F
NAWILIWILI       1000      82                N/A
WHOTS BUOY       NOT AVBL
BUOY 51028       NOT AVBL
$$

......................KEY........................................
  SKY/WX - SKY CONDITIONS/PRESENT WEATHER
  TMP    - TEMPERATURE IN FAHRENHEIT
  DWPT   - DEWPOINT IN FAHRENHEIT
  RH     - RELATIVE HUMIDITY IN PERCENT
  WIND   - DIRECTION AND SPEED /MPH FOR ISLANDS...KTS FOR BUOYS/
  PRES   - MEAN SEA LEVEL PRESSURE IN INCHES OF HG
  VSB    - VISIBILITY IN MILES
  HX     - HEAT INDEX
  WCI    - WIND CHILL INDEX
  VRB    - VARIABLE WIND DIRECTION
  N/A    - NOT AVAILABLE


USA.gov is the U.S. government's official web portal to all federal, state and local government web resources and services.